GW0388 Weather Reports


time (UTC)temp
F
wind
direction
speed
knots
gust
knots
rain 1hr
in
rain 24hr
in
rain mn
in
humidity
%
barometer
mb
20260507030107 60 5 2.6 9.6 0.00 0.00 0.00 71 1020.0
20260507024606 61 317 3.5 8.7 0.00 0.00 0.00 70 1019.9
20260507023052 62 47 3.5 8.7 0.00 0.00 0.00 70 1019.8
20260507021555 64 32 2.6 9.6 0.00 0.00 0.00 68 1019.7
20260507014557 66 320 3.5 10.4 0.00 0.00 0.00 66 1019.7
20260507013102 66 333 2.6 9.6 0.00 0.00 0.00 66 1019.8
20260507011557 67 5 3.5 10.4 0.00 0.00 0.00 65 1019.7
20260507010101 67 16 5.2 9.6 0.00 0.00 0.00 66 1019.8
20260507004556 67 29 2.6 8.7 0.00 0.00 0.00 68 1019.6
20260507003101 67 329 2.6 10.4 0.00 0.00 0.00 68 1019.6
20260507001556 67 29 3.5 7.8 0.00 0.00 0.00 66 1019.5
20260507000054 68 55 2.6 7.8 0.00 0.00 0.00 64 1019.6
20260506234606 68 344 2.6 9.6 0.00 0.00 0.00 66 1019.5
20260506233057 68 80 2.6 7.8 0.00 0.00 0.00 68 1019.5
20260506231556 68 53 2.6 7.0 0.00 0.00 0.00 69 1019.5
20260506224554 69 340 1.7 6.1 0.00 0.00 0.00 64 1019.6
20260506223053 70 48 1.7 4.3 0.00 0.00 0.00 64 1019.7
20260506221558 69 0 2.6 8.7 0.00 0.00 0.00 65 1019.8
20260506220057 69 16 0.9 7.0 0.00 0.00 0.00 65 1019.8
20260506214558 69 304 2.6 6.1 0.00 0.00 0.00 66 1019.8
20260506213101 70 0 0.0 5.2 0.00 0.00 0.00 64 1019.8
20260506211553 70 145 0.0 6.1 0.00 0.00 0.00 64 1019.9
20260506210058 68 322 0.9 6.1 0.00 0.00 0.00 66 1020.0
20260506204559 69 101 0.0 3.5 0.00 0.00 0.00 66 1020.1
20260506203057 67 165 0.0 3.5 0.00 0.00 0.00 68 1020.2
20260506201558 66 71 3.5 5.2 0.00 0.00 0.00 69 1020.0
20260506200052 66 195 0.9 3.5 0.00 0.00 0.00 71 1020.0
20260506194555 66 48 0.9 4.3 0.00 0.00 0.00 69 1020.3
20260506193054 66 0 0.9 8.7 0.00 0.00 0.00 70 1020.4
20260506191555 66 92 2.6 7.8 0.00 0.00 0.00 69 1020.4
20260506190055 66 0 1.7 7.0 0.00 0.00 0.00 70 1020.4
20260506184552 66 352 0.9 5.2 0.00 0.00 0.00 71 1020.3
20260506183056 64 0 0.9 5.2 0.00 0.00 0.00 74 1020.4
20260506181552 63 118 1.7 7.0 0.00 0.00 0.00 75 1020.5
20260506180051 62 193 3.5 9.6 0.00 0.00 0.00 77 1020.2
20260506174555 60 0 0.9 4.3 0.00 0.00 0.00 80 1020.4
20260506173124 60 0 0.0 4.3 0.00 0.00 0.00 80 1020.5
20260506171601 60 186 0.0 2.6 0.00 0.00 0.00 80 1020.2
20260506170050 59 0 0.0 4.3 0.00 0.00 0.00 80 1020.3
20260506164559 59 206 0.0 4.3 0.00 0.00 0.00 81 1020.4
20260506163104 58 0 0.0 0.9 0.00 0.00 0.00 82 1020.3
20260506161627 58 0 0.0 1.7 0.00 0.00 0.00 81 1020.3
20260506160051 58 0 0.0 0.9 0.00 0.00 0.00 81 1020.3
20260506154600 57 0 0.0 1.7 0.00 0.00 0.00 81 1020.0
20260506153058 57 0 0.0 1.7 0.00 0.00 0.00 83 1019.8
20260506151552 56 0 0.9 2.6 0.00 0.00 0.00 83 1019.7
20260506150049 56 0 0.0 2.6 0.00 0.00 0.00 85 1019.8
20260506144552 55 19 0.9 6.1 0.00 0.00 0.00 85 1020.3
20260506143051 55 360 1.7 4.3 0.00 0.00 0.00 86 1020.2
20260506141555 55 338 0.0 4.3 0.00 0.00 0.00 86 1020.0
20260506140055 55 342 1.7 4.3 0.00 0.00 0.00 86 1019.7
20260506134556 55 23 0.9 5.2 0.00 0.00 0.00 86 1019.1
20260506133057 55 5 0.9 3.5 0.00 0.00 0.00 87 1019.2
20260506131602 55 27 1.7 4.3 0.00 0.00 0.00 87 1019.1
20260506130121 55 5 1.7 4.3 0.00 0.00 0.00 87 1019.0
20260506124558 55 13 1.7 3.5 0.00 0.00 0.00 87 1018.8
20260506123054 55 352 0.9 3.5 0.00 0.00 0.00 86 1018.7
20260506121556 55 62 0.9 4.3 0.00 0.00 0.00 86 1018.5
20260506120108 56 47 1.7 3.5 0.00 0.00 0.00 85 1018.5
20260506114554 56 59 0.0 2.6 0.00 0.00 0.00 85 1018.4
20260506113058 56 0 0.9 3.5 0.00 0.00 0.00 85 1018.5
20260506111553 57 331 0.9 3.5 0.00 0.00 0.00 85 1018.4
20260506110101 57 23 0.9 2.6 0.00 0.00 0.00 85 1018.3
20260506104557 57 0 0.0 2.6 0.00 0.00 0.00 86 1018.0
20260506103058 57 0 0.9 2.6 0.00 0.00 0.00 85 1017.9
20260506101559 57 330 0.0 2.6 0.00 0.00 0.00 85 1017.7
20260506100114 57 0 0.0 1.7 0.00 0.00 0.00 85 1017.6
20260506094552 57 0 0.0 0.9 0.00 0.00 0.00 85 1017.4
20260506093053 57 0 0.0 0.9 0.00 0.00 0.00 85 1017.4
20260506091556 57 0 0.0 0.0 0.00 0.00 0.00 85 1017.3
20260506090052 57 0 0.0 1.7 0.00 0.00 0.00 84 1017.3
20260506084620 57 0 0.0 2.6 0.00 0.00 0.00 84 1017.3
20260506083051 58 0 0.0 2.6 0.00 0.00 0.00 84 1017.3
20260506081556 58 0 0.0 2.6 0.00 0.00 0.00 84 1017.2
20260506073058 59 0 0.0 0.0 0.00 0.00 0.00 86 1017.0
20260506071552 58 0 0.0 0.0 0.00 0.00 0.00 87 1017.0
20260506061551 59 0 0.0 0.9 0.00 0.00 0.00 86 1016.5
20260506044700 58 0 0.0 1.7 0.00 0.00 0.00 84 1016.2
20260506043101 59 0 0.0 0.9 0.00 0.00 0.00 82 1016.1
20260506041602 60 0 0.0 0.9 0.00 0.00 0.00 79 1015.9
20260506040057 61 0 0.0 0.9 0.00 0.00 0.00 76 1015.7
20260506034625 62 0 0.0 3.5 0.00 0.00 0.00 75 1015.5
20260506033058 62 82 0.0 4.3 0.00 0.00 0.00 74 1015.3
20260506031552 63 36 1.7 5.2 0.00 0.00 0.00 73 1015.2